Location: Bacharowice
(49.9333°N, 19.5833°E)
Time: 03:57:39
(UTC+00:00)

Cosmos 1818 - Pass Details

Date: 11 May 2021
Orbit: 771 x 802 km, 65.0° (Epoch: 22 June)

Event Time Altitude Azimuth Distance (km) Brightness Sun altitude
Rises 20:42:31 0° 320° (NW) 3,320 8.4 -17.3°
Reaches altitude 10° 20:45:00 10° 325° (NW) 2,388 7.3 -17.5°
Maximum altitude 20:50:26 59° 44° (NE) 927 4.0 -17.9°
Enters shadow 20:53:36 25° 116° (ESE) 1,583 4.7 -18.1°
